Regional Weather Roundup
Issued by NWS Cleveland, OH

Home | Current Version | Previous Version | Graphics & Text | Print | Product List | Glossary On
Versions: 1 2 3 4 5 6 7 8 9 10 11 12 13 14 15 16 17 18 19 20 21 22 23 24 25 26 27 28 29 30 31 32 33 34 35 36 37 38 39 40 41 42 43 44 45 46 47 48 49 50
000
ASUS41 KCLE 072102
RWRCLE
OHIO REGIONAL WEATHER ROUNDUP
NATIONAL WEATHER SERVICE CLEVELAND, OH
400 PM EST WED DEC 07 2016

NOTE: "FAIR" INDICATES FEW OR NO CLOUDS BELOW 12,000 FEET WITH NO
SIGNIFICANT WEATHER AND/OR OBSTRUCTIONS TO VISIBILITY.

OHZ001>008-015>018-024>027-034-035-043-044-072200-
   NORTHWEST OHIO

CITY           SKY/WX    TMP DP  RH WIND       PRES   REMARKS
DEFIANCE       PTCLDY    34  22  61 W8        30.07R WCI  27
FINDLAY        PTCLDY    37  23  56 W13       30.06R
TOLEDO EXPRESS PTCLDY    33  24  69 SW15G22   30.05R WCI  23
TOLEDO EXEC    MOCLDY    35  25  66 SW14      30.06R WCI  26
LIMA           MOCLDY    34  24  67 SW12      30.07R WCI  25
$$

OHZ009>014-019>023-028>033-038-089-072200-
   NORTHEAST OHIO

CITY           SKY/WX    TMP DP  RH WIND       PRES   REMARKS
CLE-HOPKINS    MOCLDY    37  21  52 SW10      30.07S
CLE-LAKEFRONT  CLEAR     36  21  54 SW12      30.04S
CUY CO. ARPT   MOCLDY    37  23  56 W14       30.04S
LORAIN-ELYRIA  CLEAR     35  22  58 SW10      30.06S WCI  27
ASHTABULA      CLEAR     37  22  54 SW9       30.03S
AKRON-CANTON   MOCLDY    37  19  48 W13       30.05F
WOOSTER        NOT AVBL
MANSFIELD      PTCLDY    35  22  58 SW12      30.05S WCI  27
YOUNGSTOWN     MOCLDY    36  22  56 SW12      30.04S
$$

OHZ042-051>053-060>062-070>072-077>081-072200-
  SOUTHWEST OHIO

CITY           SKY/WX    TMP DP  RH WIND       PRES   REMARKS
CINC-COVINGTON CLOUDY    38  23  55 W8        30.12S
CINC-LUNKEN    CLOUDY    40  22  48 W12       30.15S
HAMILTON       CLOUDY    39  23  52 MISG      30.14S
DAYTON         NOT AVBL
WRIGHT-PAT AFB NOT AVBL
DAYTON GENERAL CLOUDY    37  22  54 SW8       30.11S
WILMINGTON     CLOUDY    37  21  52 SW8       30.11R
$$

OHZ036-037-039>041-045>050-054>059-063>069-073>076-082>088-072200-
  CENTRAL AND SOUTHEAST OHIO

CITY           SKY/WX    TMP DP  RH WIND       PRES   REMARKS
COLUMBUS       CLOUDY    36  25  64 S8        30.10S
OSU AIRPORT    MOCLDY    37  25  61 SW9       30.09S
BOLTON FIELD   CLOUDY    36  25  64 SW9       30.11S
RICKENBACK AFB NOT AVBL
NEWARK         CLOUDY    37  23  56 SW8       30.10R
MARION         CLEAR     36  24  62 SW10      30.08S
LANCASTER      CLOUDY    37  24  59 SW7       30.11S
ZANESVILLE     CLOUDY    38  24  57 W6        30.10R
NEW PHILLY     NOT AVBL
$$




USA.gov is the U.S. government's official web portal to all federal, state and local government web resources and services.